Regional Weather Roundup
Issued by NWS Cleveland, OH

Home | Current Version | Previous Version | Graphics & Text | Print | Product List | Glossary On
Versions: 1 2 3 4 5 6 7 8 9 10 11 12 13 14 15 16 17 18 19 20 21 22 23 24 25 26 27 28 29 30 31 32 33 34 35 36 37 38 39 40 41 42 43 44 45 46 47 48 49 50
000
ASUS41 KCLE 260100
RWRCLE
OHIO REGIONAL WEATHER ROUNDUP
NATIONAL WEATHER SERVICE WILMINGTON, OH
900 PM EDT SAT APR 25 2015

NOTE: "FAIR" INDICATES FEW OR NO CLOUDS BELOW 12,000 FEET WITH NO
SIGNIFICANT WEATHER AND/OR OBSTRUCTIONS TO VISIBILITY.

OHZ001>008-015>018-024>027-034-035-043-044-260200-
   NORTHWEST OHIO

CITY           SKY/WX    TMP DP  RH WIND       PRES   REMARKS
DEFIANCE       CLOUDY    44  31  60 NE5       29.77R
FINDLAY        CLOUDY    43  30  60 NE15      29.73S
TOLEDO EXPRESS CLOUDY    43  23  45 NE10      29.76F
TOLEDO EXEC    CLOUDY    44  26  49 NE10G18   29.78F
LIMA           CLOUDY    40  35  83 NE8       29.74R
$$

OHZ009>014-019>023-028>033-038-089-260200-
   NORTHEAST OHIO

CITY           SKY/WX    TMP DP  RH WIND       PRES   REMARKS
CLE-HOPKINS    CLOUDY    44  26  49 NE15      29.77F
CLE-LAKEFRONT  CLOUDY    45  25  45 NE15      29.75F
CUY CO. ARPT   NOT AVBL
LORAIN-ELYRIA  CLOUDY    41  27  57 NE14      29.76F
ASHTABULA      PTCLDY    42  23  46 NE7       29.77S
AKRON-CANTON   CLOUDY    47  25  42 N9        29.71F
WOOSTER        NOT AVBL
MANSFIELD      CLOUDY    42  23  46 N9        29.72F
YOUNGSTOWN     CLOUDY    44  25  47 N10       29.73S
$$

OHZ042-051>053-060>062-070>072-077>081-260200-
  SOUTHWEST OHIO

CITY           SKY/WX    TMP DP  RH WIND       PRES   REMARKS
CINC-COVINGTON CLOUDY    45  44  97 E18G24    29.60F
CINC-LUNKEN    CLOUDY    46  42  86 NE10      29.64S
HAMILTON       CLOUDY    46  42  86 E13       29.65S
DAYTON         NOT AVBL
WRIGHT-PAT AFB MOCLDY    44  41  89 NE8       29.67S
DAYTON GENERAL CLOUDY    44  39  82 E14       29.64F
WILMINGTON     CLOUDY    43  39  86 E12G17    29.65F
$$

OHZ036-037-039>041-045>050-054>059-063>069-073>076-082>088-260200-
  CENTRAL AND SOUTHEAST OHIO

CITY           SKY/WX    TMP DP  RH WIND       PRES   REMARKS
COLUMBUS       CLOUDY    44  43  96 NE10      29.68F
OSU AIRPORT    CLOUDY    44  41  89 NE8       29.69F
BOLTON FIELD   NOT AVBL
RICKENBACK AFB NOT AVBL
NEWARK         LGT RAIN  45  41  86 NE8       29.68F
MARION         CLOUDY    40  35  83 NE10      29.71F
LANCASTER      CLOUDY    44  39  82 NE10      29.68F
ZANESVILLE     CLOUDY    43  39  86 NE6       29.71R
NEW PHILLY     LGT RAIN  46  39  76 CALM      29.69F
$$



USA.gov is the U.S. government's official web portal to all federal, state and local government web resources and services.